Trinidad, CO

2:08 AM MST on February 14, 2016 (GMT -0700)
Stokes

Weather History for KTAD - April, 2013

Change the Weather History Date:

Wednesday, April 10, 2013

  Actual Average Record
Temperature  
Mean Temperature 19 °F 48 °F  
Max Temperature 31 °F 64 °F 83 °F (1960)
Min Temperature 7 °F 32 °F 7 °F (2013)
Degree Days  
Heating Degree Days 46 17  
Month to date heating degree days 198 182  
Since 1 July heating degree days 4862 5011  
Cooling Degree Days 0 0  
Month to date cooling degree days 0 0  
Year to date cooling degree days 0 0  
Moisture  
Dew Point 10 °F    
Average Humidity 69    
Maximum Humidity 84    
Minimum Humidity 53    
Precipitation  
Precipitation 0.12 in 0.04 in 0.42 in (1997)
Month to date precipitation 0.24 0.32  
Year to date precipitation 0.78 2.10  
Sea Level Pressure  
Sea Level Pressure 30.10 in    
Wind  
Wind Speed 3 mph (NNW)    
Max Wind Speed 12 mph    
Max Gust Speed 15 mph    
Visibility 7 miles    
Events Snow    
T = Trace of Precipitation, MM = Missing Value Source: NWS Daily Summary

Daily Weather History Graph

Daily Weather History Graph

Search for Another Location

Airport or City:

Trip Planner

Search our weather history database for the weather conditions in past years. The results will help you decide how hot, cold, wet, or windy it might be!

Date:

Astronomy

Apr. 10, 2013 Rise Set
Actual Time 6:29 AM MDT 7:28 PM MDT
Civil Twilight 6:02 AM MDT 7:54 PM MDT
Nautical Twilight 5:31 AM MDT 8:26 PM MDT
Astronomical Twilight 4:58 AM MDT 8:59 PM MDT
Moon 6:27 AM MDT (4/10) 8:05 PM MDT (4/10)
Length of Visible Light 13h 52m
Length of Day
12h 58m
New Moon, 0% of the Moon is Illuminated
Apr 10
New Moon
Apr 18
First Quarter
Apr 25
Full
May 2
Last Quarter
May 9
New

Hourly Weather History & Observations

Time (MDT) Temp. Windchill Dew Point Humidity Pressure Visibility Wind Dir Wind Speed Gust Speed Precip Events Conditions
12:54 AM 12.0 °F 5.9 °F 3.9 °F 70% 30.25 in 10.0 mi NNE 3.5 mph - N/A   Overcast
1:54 AM 12.0 °F 1.5 °F 3.0 °F 67% 30.24 in 10.0 mi North 6.9 mph - N/A   Overcast
2:54 AM 10.9 °F 2.9 °F 3.0 °F 70% 30.25 in 10.0 mi NE 4.6 mph - N/A   Overcast
3:54 AM 10.9 °F - 3.0 °F 70% 30.22 in 10.0 mi Calm Calm - N/A   Overcast
4:54 AM 10.0 °F 1.8 °F 3.0 °F 73% 30.22 in 10.0 mi West 4.6 mph - N/A   Overcast
5:54 AM 7.0 °F -1.7 °F 1.9 °F 80% 30.22 in 10.0 mi WSW 4.6 mph - N/A   Partly Cloudy
6:54 AM 10.0 °F 3.6 °F 3.9 °F 76% 30.22 in 10.0 mi SSW 3.5 mph - N/A   Clear
7:54 AM 12.9 °F - 3.0 °F 65% 30.23 in 6.0 mi Calm Calm - 0.00 in Snow Light Snow
8:18 AM 12.2 °F 6.1 °F 5.0 °F 73% 30.05 in 1.8 mi NNW 3.5 mph - 0.00 in Snow Light Snow
8:26 AM 12.2 °F 6.1 °F 6.8 °F 79% 30.05 in 1.0 mi NW 3.5 mph - 0.00 in Snow Light Snow
8:39 AM 12.2 °F 6.1 °F 6.8 °F 79% 30.05 in 0.5 mi West 3.5 mph - 0.00 in Snow Snow
8:54 AM 12.0 °F 5.9 °F 8.1 °F 84% 30.24 in 0.8 mi SW 3.5 mph - 0.00 in Snow Light Snow
9:01 AM 12.2 °F 2.9 °F 6.8 °F 79% 30.06 in 1.2 mi SW 5.8 mph - 0.00 in Snow Light Snow
9:21 AM 12.2 °F 6.1 °F 8.6 °F 85% 30.06 in 0.8 mi SW 3.5 mph - 0.00 in Snow Light Snow
9:38 AM 12.2 °F 6.1 °F 8.6 °F 85% 30.06 in 1.2 mi South 3.5 mph - 0.00 in Snow Light Snow
9:54 AM 12.9 °F - 9.0 °F 84% 30.24 in 1.2 mi Calm Calm - 0.00 in Snow Light Snow
10:03 AM 14.0 °F - 8.6 °F 79% 30.05 in 2.0 mi Calm Calm - 0.00 in Snow Light Snow
10:14 AM 14.0 °F - 8.6 °F 79% 30.05 in 4.0 mi Calm Calm - 0.00 in Snow Light Snow
12:54 PM 21.9 °F 14.5 °F 10.9 °F 63% 30.16 in 10.0 mi NW 5.8 mph - N/A   Overcast
1:54 PM 25.0 °F 18.1 °F 16.0 °F 69% 30.11 in 10.0 mi Variable 5.8 mph - N/A   Mostly Cloudy
2:44 PM 28.4 °F 24.6 °F 17.6 °F 64% 29.96 in 10.0 mi Variable 3.5 mph - N/A   Mostly Cloudy
2:54 PM 28.0 °F 24.2 °F 18.0 °F 66% 30.08 in 10.0 mi NNE 3.5 mph - N/A   Scattered Clouds
3:01 PM 26.6 °F - 17.6 °F 69% 29.96 in 10.0 mi Calm Calm - N/A   Mostly Cloudy
3:54 PM 28.9 °F - 18.0 °F 64% 30.05 in 10.0 mi Calm Calm - N/A   Overcast
4:31 PM 30.2 °F 25.4 °F 17.6 °F 60% 29.93 in 10.0 mi ENE 4.6 mph - N/A   Overcast
4:54 PM 30.0 °F 23.2 °F 18.0 °F 61% 30.04 in 10.0 mi East 6.9 mph - N/A   Overcast
5:54 PM 30.9 °F 23.5 °F 18.0 °F 59% 30.06 in 10.0 mi East 8.1 mph - N/A   Mostly Cloudy
6:54 PM 30.0 °F - 15.1 °F 54% 30.04 in 10.0 mi Calm Calm - N/A   Overcast
7:54 PM 28.9 °F - 16.0 °F 58% 30.04 in 10.0 mi Calm Calm - N/A   Partly Cloudy
8:54 PM 27.0 °F 23.0 °F 17.1 °F 66% 30.05 in 10.0 mi South 3.5 mph - N/A   Clear
9:54 PM 24.1 °F 15.2 °F 12.9 °F 62% 30.08 in 10.0 mi ENE 8.1 mph - N/A   Scattered Clouds
10:54 PM 21.9 °F 15.7 °F 12.9 °F 68% 30.07 in 10.0 mi ENE 4.6 mph - N/A   Clear
11:54 PM 21.0 °F - 12.0 °F 68% 30.05 in 10.0 mi Calm Calm - N/A   Clear